Overview Statistics Trail Chart Weather Telemetry Raw packets
 

This is the latest recevied weather packets stored in our database for station/object SV9TNF-56. If no packets are shown the sender has not sent any weather packets the latest 10 day(s).

<< 2 3 4 5 6 7 8 >>
Time Temp. Humidity Pressure Rain* Wind** Luminosity Snow
1788639772 24.44° C 56% 1014.2 hPa 0 mm 25.93 m/s, 240° - -
1788639472 25° C 56% 1014.2 hPa 0 mm 11.18 m/s, 216° - -
1788639172 25° C 55% 1014.2 hPa 0 mm 5.36 m/s, 144° - -
1788638872 25° C 54% 1014.2 hPa 0 mm 8.49 m/s, 42° - -
1788638572 25° C 53% 1014.2 hPa 0 mm 10.28 m/s, 105° - -
1788638272 25° C 54% 1014.2 hPa 0 mm 12.52 m/s, 99° - -
1788637972 25° C 54% 1014.2 hPa 0 mm 6.71 m/s, 159° - -
1788637671 25° C 54% 1014.2 hPa 0 mm 4.92 m/s, 114° - -
1788637371 25° C 53% 1013.9 hPa 0 mm 16.99 m/s, 114° - -
1788637071 25° C 55% 1014.2 hPa 0 mm 12.52 m/s, 132° - -
1788636771 25° C 55% 1013.9 hPa 0 mm 25.48 m/s, 108° - -
1788636471 25° C 55% 1013.9 hPa 0 mm 15.2 m/s, 108° - -
1788636171 25° C 55% 1013.9 hPa 0 mm 16.09 m/s, 99° - -
1788635871 25° C 54% 1013.9 hPa 0 mm 22.8 m/s, 89° - -
1788635571 25.56° C 53% 1013.9 hPa 0 mm 23.69 m/s, 123° - -
1788635271 25.56° C 52% 1013.9 hPa 0 mm 13.41 m/s, 137° - -
1788634971 25.56° C 52% 1013.9 hPa 0 mm 23.69 m/s, 104° - -
1788634671 25° C 54% 1013.9 hPa 0 mm 15.2 m/s, 116° - -
1788634371 25.56° C 54% 1013.9 hPa 0 mm 7.15 m/s, 111° - -
1788634070 25.56° C 54% 1013.6 hPa 0 mm 11.18 m/s, 126° - -
1788633770 25.56° C 51% 1013.9 hPa 0 mm 4.92 m/s, 154° - -
1788633470 25.56° C 49% 1013.6 hPa 0 mm 8.49 m/s, 93° - -
1788633170 25.56° C 51% 1013.6 hPa 0 mm 11.18 m/s, 227° - -
1788632870 25° C 54% 1013.6 hPa 0 mm 33.53 m/s, 114° - -
1788632570 25° C 54% 1013.6 hPa 0 mm 19.22 m/s, 168° - -

* Rain latest hour (hover to see other rain measurements)
** Current wind speed in m/s (hover to see current wind gust speed)